Time,TemperatureF,DewpointF,PressureIn,WindDirection,WindDirectionDegrees,WindSpeedMPH,WindSpeedGustMPH,Humidity,HourlyPrecipIn,Conditions,Clouds,dailyrainin,SoftwareType,DateUTC
2013-09-18 00:03:00,73.0,71.0,30.01,NE,53,0.0,0.0,93,0.00,,,0.00,weatherlink.com 1.10,2013-09-18 04:03:00,
2013-09-18 00:18:00,72.8,71.0,30.01,NE,51,0.0,0.0,93,0.00,,,0.00,weatherlink.com 1.10,2013-09-18 04:18:00,
2013-09-18 00:33:00,72.6,71.0,30.01,NE,53,0.0,0.0,94,0.00,,,0.00,weatherlink.com 1.10,2013-09-18 04:33:00,
2013-09-18 00:48:00,72.6,71.0,30.00,NE,51,0.0,0.0,94,0.00,,,0.00,weatherlink.com 1.10,2013-09-18 04:48:00,
2013-09-18 01:04:00,72.6,71.0,30.00,NE,51,0.0,0.0,94,0.00,,,0.00,weatherlink.com 1.10,2013-09-18 05:04:00,
2013-09-18 01:19:00,72.4,71.0,30.00,NE,51,0.0,0.0,94,0.00,,,0.00,weatherlink.com 1.10,2013-09-18 05:19:00,
2013-09-18 01:34:00,73.1,72.0,30.00,NE,51,0.0,0.0,95,0.00,,,0.00,weatherlink.com 1.10,2013-09-18 05:34:00,
2013-09-18 01:49:00,73.7,72.0,30.00,NNE,19,1.0,1.0,95,0.00,,,0.00,weatherlink.com 1.10,2013-09-18 05:49:00,
2013-09-18 02:04:00,73.7,72.0,29.99,NNE,29,0.0,0.0,95,0.00,,,0.00,weatherlink.com 1.10,2013-09-18 06:04:00,
2013-09-18 02:19:00,73.8,72.0,29.99,NNW,345,0.0,0.0,95,0.00,,,0.00,weatherlink.com 1.10,2013-09-18 06:19:00,
2013-09-18 02:34:00,73.7,72.0,29.99,NNW,345,0.0,0.0,95,0.00,,,0.00,weatherlink.com 1.10,2013-09-18 06:34:00,
2013-09-18 02:49:00,73.9,72.0,29.98,NNW,345,0.0,0.0,95,0.00,,,0.00,weatherlink.com 1.10,2013-09-18 06:49:00,
2013-09-18 03:04:00,74.0,73.0,29.98,NE,44,0.0,0.0,95,0.00,,,0.00,weatherlink.com 1.10,2013-09-18 07:04:00,
2013-09-18 03:19:00,74.0,72.0,29.98,NNE,20,0.0,0.0,94,0.01,,,0.01,weatherlink.com 1.10,2013-09-18 07:19:00,
2013-09-18 03:34:00,74.3,73.0,29.98,NNE,26,0.0,5.0,94,0.02,,,0.02,weatherlink.com 1.10,2013-09-18 07:34:00,
2013-09-18 03:49:00,74.5,73.0,29.98,North,9,0.0,4.0,94,0.03,,,0.03,weatherlink.com 1.10,2013-09-18 07:49:00,
2013-09-18 04:04:00,74.2,72.0,29.97,NE,49,2.0,4.0,94,0.03,,,0.03,weatherlink.com 1.10,2013-09-18 08:04:00,
2013-09-18 04:19:00,73.8,72.0,29.97,NE,45,0.0,2.0,93,0.02,,,0.03,weatherlink.com 1.10,2013-09-18 08:19:00,
2013-09-18 04:34:00,73.6,72.0,29.97,NE,40,2.0,2.0,93,0.01,,,0.03,weatherlink.com 1.10,2013-09-18 08:34:00,
2013-09-18 04:49:00,73.5,71.0,29.98,NE,44,0.0,1.0,93,0.00,,,0.03,weatherlink.com 1.10,2013-09-18 08:49:00,
2013-09-18 05:04:00,73.3,72.0,29.98,NE,41,1.0,2.0,94,0.00,,,0.03,weatherlink.com 1.10,2013-09-18 09:04:00,
2013-09-18 05:19:00,73.3,72.0,29.98,NE,43,0.0,3.0,94,0.00,,,0.03,weatherlink.com 1.10,2013-09-18 09:19:00,
2013-09-18 05:34:00,73.3,72.0,29.98,North,8,0.0,1.0,94,0.00,,,0.03,weatherlink.com 1.10,2013-09-18 09:34:00,
2013-09-18 05:49:00,73.2,71.0,29.98,North,8,0.0,0.0,94,0.00,,,0.03,weatherlink.com 1.10,2013-09-18 09:49:00,
2013-09-18 06:04:00,73.0,71.0,29.98,North,7,0.0,1.0,94,0.00,,,0.03,weatherlink.com 1.10,2013-09-18 10:04:00,
2013-09-18 06:19:00,72.7,71.0,29.98,North,8,0.0,0.0,94,0.00,,,0.03,weatherlink.com 1.10,2013-09-18 10:19:00,
2013-09-18 06:34:00,72.3,71.0,29.98,North,7,0.0,0.0,95,0.00,,,0.03,weatherlink.com 1.10,2013-09-18 10:34:00,
2013-09-18 06:49:00,72.4,71.0,29.98,North,7,0.0,0.0,95,0.00,,,0.03,weatherlink.com 1.10,2013-09-18 10:49:00,
2013-09-18 07:04:00,72.5,71.0,29.99,North,8,0.0,0.0,95,0.00,,,0.03,weatherlink.com 1.10,2013-09-18 11:04:00,
2013-09-18 07:19:00,72.8,71.0,29.99,NNW,347,1.0,2.0,95,0.00,,,0.03,weatherlink.com 1.10,2013-09-18 11:19:00,
2013-09-18 07:34:00,73.1,72.0,30.00,NW,326,2.0,3.0,96,0.00,,,0.03,weatherlink.com 1.10,2013-09-18 11:34:00,
2013-09-18 07:49:00,73.5,72.0,30.00,NNE,23,2.0,4.0,95,0.00,,,0.03,weatherlink.com 1.10,2013-09-18 11:49:00,
2013-09-18 08:04:00,74.1,73.0,30.00,NNE,28,5.0,5.0,95,0.00,,,0.03,weatherlink.com 1.10,2013-09-18 12:04:00,
2013-09-18 08:19:00,74.9,73.0,30.00,NE,44,3.0,5.0,94,0.00,,,0.03,weatherlink.com 1.10,2013-09-18 12:19:00,
2013-09-18 08:34:00,75.7,74.0,29.99,NW,319,1.0,6.0,93,0.00,,,0.03,weatherlink.com 1.10,2013-09-18 12:34:00,
2013-09-18 08:49:00,76.8,74.0,30.00,NNE,27,0.0,5.0,92,0.00,,,0.03,weatherlink.com 1.10,2013-09-18 12:49:00,
2013-09-18 09:04:00,77.8,75.0,30.00,ENE,72,2.0,6.0,91,0.00,,,0.03,weatherlink.com 1.10,2013-09-18 13:04:00,
2013-09-18 09:19:00,78.9,76.0,30.01,NE,47,1.0,6.0,90,0.00,,,0.03,weatherlink.com 1.10,2013-09-18 13:19:00,
2013-09-18 09:34:00,80.4,77.0,30.01,North,7,2.0,5.0,88,0.00,,,0.03,weatherlink.com 1.10,2013-09-18 13:34:00,
2013-09-18 09:50:00,81.1,77.0,30.01,NE,53,1.0,7.0,86,0.00,,,0.03,weatherlink.com 1.10,2013-09-18 13:50:00,
2013-09-18 10:05:00,81.7,77.0,30.01,NNW,340,3.0,8.0,85,0.00,,,0.03,weatherlink.com 1.10,2013-09-18 14:05:00,
2013-09-18 10:20:00,83.0,77.0,30.02,ESE,105,5.0,9.0,82,0.00,,,0.03,weatherlink.com 1.10,2013-09-18 14:20:00,
2013-09-18 10:35:00,83.6,77.0,30.01,ESE,115,6.0,12.0,80,0.00,,,0.03,weatherlink.com 1.10,2013-09-18 14:35:00,
2013-09-18 10:50:00,83.5,76.0,30.02,SE,134,3.0,11.0,79,0.00,,,0.03,weatherlink.com 1.10,2013-09-18 14:50:00,
2013-09-18 11:05:00,83.1,76.0,30.01,NE,50,6.0,8.0,79,0.00,,,0.03,weatherlink.com 1.10,2013-09-18 15:05:00,
2013-09-18 11:20:00,84.4,77.0,30.01,SE,126,1.0,9.0,78,0.00,,,0.03,weatherlink.com 1.10,2013-09-18 15:20:00,
2013-09-18 11:35:00,84.8,77.0,30.01,ENE,75,4.0,8.0,78,0.00,,,0.03,weatherlink.com 1.10,2013-09-18 15:35:00,
2013-09-18 11:50:00,86.5,77.0,30.00,NE,44,5.0,6.0,72,0.00,,,0.03,weatherlink.com 1.10,2013-09-18 15:50:00,
2013-09-18 12:05:00,86.9,77.0,30.00,North,6,6.0,9.0,72,0.00,,,0.03,weatherlink.com 1.10,2013-09-18 16:05:00,
2013-09-18 12:20:00,87.1,77.0,30.00,East,96,4.0,11.0,72,0.00,,,0.03,weatherlink.com 1.10,2013-09-18 16:20:00,
2013-09-18 12:35:00,86.3,75.0,30.00,NNE,18,9.0,12.0,69,0.00,,,0.03,weatherlink.com 1.10,2013-09-18 16:35:00,
2013-09-18 13:05:00,85.8,77.0,30.00,NNE,32,10.0,12.0,74,0.00,,,0.03,weatherlink.com 1.10,2013-09-18 17:05:00,
2013-09-18 13:20:00,84.7,76.0,30.00,NNW,336,5.0,13.0,76,0.00,,,0.03,weatherlink.com 1.10,2013-09-18 17:20:00,
2013-09-18 13:50:00,86.1,77.0,29.99,NNE,32,1.0,13.0,73,0.00,,,0.03,weatherlink.com 1.10,2013-09-18 17:50:00,
2013-09-18 14:05:00,86.3,76.0,29.99,ENE,70,8.0,12.0,71,0.00,,,0.03,weatherlink.com 1.10,2013-09-18 18:05:00,
2013-09-18 14:20:00,86.1,76.0,29.99,NE,49,3.0,12.0,72,0.00,,,0.03,weatherlink.com 1.10,2013-09-18 18:20:00,
2013-09-18 14:35:00,86.9,77.0,29.99,ENE,73,9.0,12.0,72,0.00,,,0.03,weatherlink.com 1.10,2013-09-18 18:35:00,
2013-09-18 14:50:00,87.7,78.0,29.98,NE,46,2.0,11.0,72,0.00,,,0.03,weatherlink.com 1.10,2013-09-18 18:50:00,
2013-09-18 15:05:00,87.6,77.0,29.98,ENE,58,6.0,10.0,70,0.00,,,0.03,weatherlink.com 1.10,2013-09-18 19:05:00,
2013-09-18 15:20:00,81.7,73.0,29.98,NE,44,4.0,13.0,76,0.00,,,0.03,weatherlink.com 1.10,2013-09-18 19:20:00,
2013-09-18 15:50:00,84.0,75.0,29.97,NE,43,6.0,11.0,73,0.00,,,0.03,weatherlink.com 1.10,2013-09-18 19:50:00,
2013-09-18 16:20:00,85.6,76.0,29.96,NE,37,8.0,11.0,74,0.00,,,0.03,weatherlink.com 1.10,2013-09-18 20:20:00,
2013-09-18 16:35:00,84.9,76.0,29.96,WSW,242,1.0,9.0,74,0.00,,,0.03,weatherlink.com 1.10,2013-09-18 20:35:00,
2013-09-18 16:50:00,86.1,76.0,29.95,NE,53,3.0,13.0,72,0.00,,,0.03,weatherlink.com 1.10,2013-09-18 20:50:00,
2013-09-18 17:05:00,85.2,77.0,29.96,North,5,1.0,9.0,75,0.00,,,0.03,weatherlink.com 1.10,2013-09-18 21:05:00,
2013-09-18 17:20:00,84.8,76.0,29.96,East,94,7.0,8.0,75,0.00,,,0.03,weatherlink.com 1.10,2013-09-18 21:20:00,
2013-09-18 17:35:00,83.9,76.0,29.96,East,98,5.0,15.0,76,0.00,,,0.03,weatherlink.com 1.10,2013-09-18 21:35:00,
2013-09-18 18:05:00,83.3,76.0,29.98,WSW,249,1.0,8.0,78,0.00,,,0.03,weatherlink.com 1.10,2013-09-18 22:05:00,
2013-09-18 18:20:00,84.1,76.0,29.98,North,352,1.0,7.0,76,0.00,,,0.03,weatherlink.com 1.10,2013-09-18 22:20:00,
2013-09-18 18:35:00,84.6,76.0,29.98,NE,39,5.0,6.0,76,0.00,,,0.03,weatherlink.com 1.10,2013-09-18 22:35:00,
2013-09-18 18:50:00,82.9,75.0,29.99,NE,46,2.0,7.0,77,0.00,,,0.03,weatherlink.com 1.10,2013-09-18 22:50:00,
2013-09-18 19:05:00,82.2,74.0,29.99,ESE,112,3.0,6.0,77,0.00,,,0.03,weatherlink.com 1.10,2013-09-18 23:05:00,
2013-09-18 19:20:00,76.9,72.0,30.02,SSE,152,4.0,13.0,85,0.00,,,0.03,weatherlink.com 1.10,2013-09-18 23:20:00,
2013-09-18 19:35:00,74.2,72.0,30.02,East,99,3.0,10.0,91,0.47,,,0.50,weatherlink.com 1.10,2013-09-18 23:35:00,
2013-09-18 19:50:00,73.3,71.0,30.02,ESE,118,0.0,5.0,92,0.64,,,0.67,weatherlink.com 1.10,2013-09-18 23:50:00,
2013-09-18 20:05:00,73.1,71.0,30.02,NE,43,0.0,1.0,92,0.65,,,0.68,weatherlink.com 1.10,2013-09-19 00:05:00,
2013-09-18 20:20:00,73.5,71.0,30.02,NE,41,0.0,1.0,93,0.65,,,0.69,weatherlink.com 1.10,2013-09-19 00:20:00,
2013-09-18 20:35:00,74.0,72.0,30.01,NE,40,0.0,1.0,94,0.16,,,0.69,weatherlink.com 1.10,2013-09-19 00:35:00,
2013-09-18 20:50:00,74.1,72.0,30.02,NE,40,0.0,1.0,94,0.01,,,0.69,weatherlink.com 1.10,2013-09-19 00:50:00,
2013-09-18 21:05:00,74.2,72.0,30.02,NNE,32,0.0,1.0,94,0.01,,,0.69,weatherlink.com 1.10,2013-09-19 01:05:00,
2013-09-18 21:20:00,74.1,72.0,30.03,NE,34,0.0,1.0,94,0.00,,,0.69,weatherlink.com 1.10,2013-09-19 01:20:00,
2013-09-18 21:35:00,74.0,72.0,30.03,NNE,33,0.0,1.0,94,0.00,,,0.69,weatherlink.com 1.10,2013-09-19 01:35:00,
2013-09-18 21:50:00,74.2,73.0,30.03,ENE,70,0.0,1.0,95,0.00,,,0.69,weatherlink.com 1.10,2013-09-19 01:50:00,
2013-09-18 22:05:00,74.1,73.0,30.03,ENE,66,0.0,0.0,95,0.00,,,0.69,weatherlink.com 1.10,2013-09-19 02:05:00,
2013-09-18 22:21:00,74.0,73.0,30.04,ENE,66,0.0,0.0,95,0.00,,,0.69,weatherlink.com 1.10,2013-09-19 02:21:00,
2013-09-18 22:36:00,74.2,73.0,30.04,ENE,70,0.0,1.0,95,0.00,,,0.69,weatherlink.com 1.10,2013-09-19 02:36:00,
2013-09-18 22:51:00,74.3,73.0,30.03,NE,40,1.0,2.0,95,0.00,,,0.69,weatherlink.com 1.10,2013-09-19 02:51:00,
2013-09-18 23:06:00,74.2,73.0,30.04,NNE,18,0.0,2.0,95,0.00,,,0.69,weatherlink.com 1.10,2013-09-19 03:06:00,
2013-09-18 23:21:00,74.1,73.0,30.04,NNW,327,0.0,0.0,95,0.00,,,0.69,weatherlink.com 1.10,2013-09-19 03:21:00,
2013-09-18 23:36:00,73.9,72.0,30.04,NNE,32,0.0,0.0,95,0.00,,,0.69,weatherlink.com 1.10,2013-09-19 03:36:00,
2013-09-18 23:51:00,73.8,72.0,30.04,East,80,0.0,0.0,95,0.00,,,0.69,weatherlink.com 1.10,2013-09-19 03:51:00,